Voltar ao catálogo

SL-12 R/B(2)

AtivoHEO
NORAD 27404·ROCKET BODY·🇷🇺 Russia

Lançado Mar 30, 2002 de Baikonur Cosmodrome

Loading…

Próximas Passagens (próximas 24 horas)

TLE

AtualizadoSource: Space-Track

Época: Sep 14, 2026, 13:33 UTC

1 27404U 02016B   26257.56486949 -.00000127  00000-0  00000-0 0  9990
2 27404  25.4336 311.8628 6224966 186.0772 159.5923  2.06290510184357

Acompanhe SL-12 R/B(2) em tempo real com AllMySat

Download on the App Store